This is the latest recevied weather packets stored in our database for station/object SP9KB-13. If no packets are shown the sender has not sent any weather packets the latest 1 day(s).
| Time | Temp. | Humidity | Pressure | Rain* | Wind** | Luminosity | Snow |
|---|---|---|---|---|---|---|---|
| 1836274840 | 7.22° C | 99% | 1008.4 hPa | 0 mm | 0 m/s | - | - |
| 1836274540 | 7.22° C | 99% | 1008.5 hPa | 0 mm | 0 m/s | - | - |
| 1836274391 | 7.22° C | 99% | 1008.6 hPa | 0 mm | 0 m/s | - | - |
| 1836274239 | 7.22° C | 99% | 1008.7 hPa | 0 mm | 0 m/s | - | - |
| 1836273939 | 7.22° C | 99% | 1008.6 hPa | 0 mm | 0 m/s | - | - |
| 1778033585 | 13.89° C | 53% | 990.6 hPa | 0 mm | 1.34 m/s, 227° | - | - |
| 1778033285 | 13.89° C | 53% | 990.7 hPa | 0 mm | 0.45 m/s, 234° | - | - |
| 1778032984 | 13.33° C | 53% | 990.7 hPa | 0 mm | 0.89 m/s, 232° | - | - |
| 1778032683 | 13.89° C | 52% | 990.7 hPa | 0 mm | 1.79 m/s, 244° | - | - |
| 1778032383 | 13.89° C | 52% | 990.7 hPa | 0 mm | 0.89 m/s, 236° | - | - |
| 1778032082 | 13.89° C | 52% | 990.7 hPa | 0 mm | 1.34 m/s, 231° | - | - |
| 1778031782 | 13.89° C | 52% | 990.7 hPa | 0 mm | 1.34 m/s, 195° | - | - |
| 1778031481 | 13.89° C | 51% | 990.7 hPa | 0 mm | 0.89 m/s, 221° | - | - |
| 1778030880 | 13.89° C | 51% | 991 hPa | 0 mm | 1.79 m/s, 219° | - | - |
| 1778030580 | 13.89° C | 52% | 990.9 hPa | 0 mm | 0.89 m/s, 214° | - | - |
| 1778030279 | 13.89° C | 52% | 990.8 hPa | 0 mm | 0.89 m/s, 214° | - | - |
| 1778029979 | 13.89° C | 51% | 990.8 hPa | 0 mm | 1.34 m/s, 205° | - | - |
| 1778029678 | 12.22° C | 55% | 990.8 hPa | 0 mm | 0.89 m/s, 239° | - | - |
| 1778029378 | 12.22° C | 60% | 990.8 hPa | 0 mm | 0 m/s | - | - |
| 1778029077 | 12.22° C | 59% | 990.8 hPa | 0 mm | 0 m/s | - | - |
| 1778028777 | 12.22° C | 58% | 990.8 hPa | 0 mm | 0 m/s | - | - |
| 1778028476 | 12.78° C | 57% | 990.7 hPa | 0 mm | 0 m/s | - | - |
| 1778028176 | 13.33° C | 56% | 990.6 hPa | 0 mm | 0 m/s | - | - |
| 1778027875 | 13.89° C | 53% | 990.6 hPa | 0 mm | 0.45 m/s, 219° | - | - |
| 1778027575 | 14.44° C | 49% | 990.7 hPa | 0 mm | 0.45 m/s, 227° | - | - |
* Rain latest hour (hover to see other rain measurements)
** Current wind speed in m/s (hover to see current wind gust speed)